This demonstration page uses our WeatherBlox Daily Observations layout. Learn more.

Left ArrowRight Arrow

34.02893, -84.19858

Hourly Observations for November 8, 2022

Temp ( °F °C ) Dew Point ( °F °C ) Humidity (%) Winds ( mph kmh ) Pressure ( in mb ) Visibility ( mi km ) Precip ( " mm )
12:53 am 00:53 Clear 64 17.8 62 16.7 93 93 Calm 30.25 1025 10 16 0.00 0.00
1:53 am 01:53 Mostly Clear 63 17.2 61 16.1 93 93 Calm 30.25 1025 10 16 0.00 0.00
2:53 am 02:53 Mostly Cloudy 64 17.8 62 16.7 93 93 Calm 30.25 1025 10 16 0.00 0.00
3:53 am 03:53 Cloudy 67 19.4 63 17.2 87 87 Calm 30.25 1024 10 16 0.00 0.00
4:53 am 04:53 Partly Cloudy 67 19.4 63 17.2 87 87 VRB 3 6 30.26 1025 10 16 0.00 0.00
5:53 am 05:53 Partly Cloudy 67 19.4 62 16.7 84 84 NE 3 6 30.27 1025 10 16 0.00 0.00
6:53 am 06:53 Clear 67 19.4 60 15.6 79 79 Calm 30.29 1026 10 16 0.00 0.00
7:53 am 07:53 Mostly Cloudy 68 20 56 13.3 65 65 VRB 5 7 30.32 1027 10 16 0.00 0.00
8:53 am 08:53 Mostly Cloudy 71 21.7 52 11.1 51 51 ENE 8 13 30.34 1027 10 16 0.00 0.00
9:53 am 09:53 Partly Cloudy 71 21.7 57 13.9 61 61 VRB 6 9 30.35 1028 10 16 0.00 0.00
10:53 am 10:53 Mostly Sunny 73 22.8 53 11.7 50 50 VRB 6 9 30.35 1028 10 16 0.00 0.00
11:53 am 11:53 Partly Cloudy 76 24.4 54 12.2 47 47 VRB 7 11 30.33 1027 10 16 0.00 0.00
12:53 pm 12:53 Sunny 76 24.4 54 12.2 47 47 VRB 6 9 30.31 1026 10 16 0.00 0.00
1:53 pm 13:53 Sunny 78 25.6 54 12.2 43 43 NNE 9 15 30.28 1025 10 16 0.00 0.00
2:53 pm 14:53 Sunny 79 26.1 53 11.7 41 41 Calm 30.26 1025 10 16 0.00 0.00
3:53 pm 15:53 Sunny 79 26.1 52 11.1 39 39 NNE 7 11 30.25 1024 10 16 0.00 0.00
4:53 pm 16:53 Sunny 77 25 50 10 39 39 VRB 6 9 30.26 1025 10 16 0.00 0.00
5:53 pm 17:53 Clear 72 22.2 49 9.4 44 44 Calm 30.27 1025 10 16 0.00 0.00
6:53 pm 18:53 Clear 69 20.6 49 9.4 49 49 Calm 30.29 1026 10 16 0.00 0.00
7:53 pm 19:53 Clear 67 19.4 48 8.9 51 51 Calm 30.31 1026 10 16 0.00 0.00
8:53 pm 20:53 Clear 64 17.8 45 7.2 50 50 Calm 30.32 1027 10 16 0.00 0.00
9:53 pm 21:53 Clear 64 17.8 40 4.4 41 41 ENE 3 6 30.34 1027 10 16 0.00 0.00
10:53 pm 22:53 Clear 64 17.8 33 0.6 31 31 VRB 5 7 30.35 1028 10 16 0.00 0.00
11:53 pm 23:53 Mostly Clear 62 16.7 29 -1.7 28 28 ENE 9 15 30.35 1028 10 16 0.00 0.00

Powered by AerisWeather